"Pseudo-MPEC" for P20MiyV

Created 2019 Feb 20 14:18:06 UT using Find_Orb

Click here for an explanation of pseudo-MPECs

 
 Astrometry: 
     P20MiyV  C2019 02 09e!ZAstrometry'(/4x8eT!vYcBredacted;Q\VOXd,upvC]cse.*F52
     P20MiyV  C2019 02 09m=rEclick0^T1Z3gw/Z@H8*T3*0here8m^:XlxLcqqs/K*C9L@DTF52
     P20MiyV  C2019 02 09BlFL4for'*D?x\30N2\8].1F3pivexplanation/)@KgdRgx3LwRF52

Station data:
(F52) Pan-STARRS 2, Haleakala  (N20.707384 W156.255910)  US/Hawaii.

Orbital elements:  P20MiyV
   Perihelion 2018 Sep 10.427925 +/- 77 TT = 10:16:12 (JD 2458371.927925)
Epoch 2019 Feb  9.0 TT = JDT 2458523.5   Earth MOID: 0.0127   Ve: 0.0389
M 179.71965195 +/- 120              (J2000 ecliptic)          AutoNEOCP
n   1.18570423 +/- 0.699            Peri.  196.89424 +/- 60
a   0.88406690 +/- 0.347            Node   123.27069 +/- 70
e   0.1450679 +/- 0.229             Incl.    2.82951 +/- 53
P   0.83/303.61d           H 27.1   G  0.15   U 12.5  SR
q 0.75581717 +/- 0.354    Q 1.01231663 +/- 11.3
From 3 observations 2019 Feb. 9 (36.0 min); mean residual 0".14
Residuals in arcseconds: 
190209 F52  .12+  .06+    190209 F52  .25-  .12-    190209 F52  .12+  .06+    

Ephemerides (geocentric):
Date (UTC) HH   RA              Dec         delta   r     elong  mag " sig PA
---- -- -- --  -------------   -----------  ------ ------ -----  --- ---- ---
2019 02 20 14  08 01 58.829   +60 40 18.78  .03586 1.0096 124.7 21.8  35d 132
2019 02 20 15  08 01 14.689   +60 42 00.56  .03590 1.0096 124.6 21.9  35d 132
2019 02 20 16  08 00 30.585   +60 43 41.09  .03594 1.0095 124.5 21.9  35d 132
2019 02 20 17  07 59 46.520   +60 45 20.38  .03598 1.0095 124.4 21.9  35d 132
2019 02 20 18  07 59 02.495   +60 46 58.44  .03603 1.0095 124.3 21.9  35d 131
2019 02 20 19  07 58 18.509   +60 48 35.26  .03607 1.0095 124.2 21.9  35d 131
2019 02 20 20  07 57 34.565   +60 50 10.86  .03611 1.0095 124.1 21.9  35d 131
2019 02 20 21  07 56 50.663   +60 51 45.23  .03615 1.0094 124.0 21.9  35d 131
2019 02 20 22  07 56 06.804   +60 53 18.39  .03620 1.0094 123.9 21.9  35d 131
2019 02 20 23  07 55 22.988   +60 54 50.34  .03624 1.0094 123.8 21.9  35d 131
2019 02 21 00  07 54 39.218   +60 56 21.09  .03628 1.0094 123.7 21.9  35d 131
2019 02 21 01  07 53 55.494   +60 57 50.63  .03632 1.0093 123.6 21.9  35d 131
2019 02 21 02  07 53 11.817   +60 59 18.98  .03637 1.0093 123.5 21.9  35d 131
2019 02 21 03  07 52 28.188   +61 00 46.15  .03641 1.0093 123.4 21.9  35d 131
2019 02 21 04  07 51 44.607   +61 02 12.13  .03645 1.0093 123.2 21.9  35d 131
2019 02 21 05  07 51 01.076   +61 03 36.93  .03650 1.0093 123.1 21.9  35d 131
2019 02 21 06  07 50 17.596   +61 05 00.56  .03654 1.0092 123.0 21.9  35d 131
2019 02 21 07  07 49 34.167   +61 06 23.02  .03658 1.0092 122.9 21.9  35d 131
2019 02 21 08  07 48 50.790   +61 07 44.32  .03662 1.0092 122.8 21.9  35d 131
2019 02 21 09  07 48 07.467   +61 09 04.46  .03667 1.0092 122.7 22.0  35d 131
2019 02 21 10  07 47 24.198   +61 10 23.46  .03671 1.0092 122.6 22.0  35d 131
2019 02 21 11  07 46 40.983   +61 11 41.30  .03676 1.0091 122.5 22.0  35d 131
2019 02 21 12  07 45 57.825   +61 12 58.01  .03680 1.0091 122.4 22.0  35d 130
2019 02 21 13  07 45 14.724   +61 14 13.59  .03684 1.0091 122.3 22.0  35d 130
2019 02 21 14  07 44 31.680   +61 15 28.04  .03689 1.0091 122.2 22.0  35d 130
2019 02 21 15  07 43 48.694   +61 16 41.36  .03693 1.0090 122.1 22.0  35d 130
2019 02 21 16  07 43 05.768   +61 17 53.57  .03697 1.0090 122.0 22.0  35d 130
2019 02 21 17  07 42 22.902   +61 19 04.67  .03702 1.0090 121.9 22.0  35d 130
2019 02 21 18  07 41 40.097   +61 20 14.66  .03706 1.0090 121.8 22.0  35d 130
2019 02 21 19  07 40 57.354   +61 21 23.56  .03711 1.0090 121.7 22.0  35d 130
2019 02 21 20  07 40 14.674   +61 22 31.35  .03715 1.0089 121.6 22.0  35d 130
2019 02 21 21  07 39 32.057   +61 23 38.07  .03720 1.0089 121.5 22.0  35d 130
2019 02 21 22  07 38 49.504   +61 24 43.69  .03724 1.0089 121.4 22.0  35d 130
2019 02 21 23  07 38 07.016   +61 25 48.24  .03729 1.0089 121.3 22.0  35d 130
2019 02 22 00  07 37 24.594   +61 26 51.72  .03733 1.0088 121.2 22.0  35d 130
2019 02 22 01  07 36 42.239   +61 27 54.14  .03737 1.0088 121.1 22.0  35d 130
2019 02 22 02  07 35 59.951   +61 28 55.50  .03742 1.0088 121.0 22.0  35d 130
2019 02 22 03  07 35 17.731   +61 29 55.80  .03746 1.0088 120.9 22.0  35d 130
2019 02 22 04  07 34 35.580   +61 30 55.05  .03751 1.0088 120.8 22.1  35d 130
2019 02 22 05  07 33 53.498   +61 31 53.26  .03755 1.0087 120.7 22.1  35d 130
2019 02 22 06  07 33 11.487   +61 32 50.44  .03760 1.0087 120.6 22.1  35d 130
2019 02 22 07  07 32 29.547   +61 33 46.58  .03765 1.0087 120.5 22.1  35d 130
2019 02 22 08  07 31 47.679   +61 34 41.70  .03769 1.0087 120.4 22.1  35d 130
2019 02 22 09  07 31 05.883   +61 35 35.81  .03774 1.0086 120.2 22.1  35d 130
2019 02 22 10  07 30 24.160   +61 36 28.89  .03778 1.0086 120.1 22.1  35d 130
2019 02 22 11  07 29 42.512   +61 37 20.98  .03783 1.0086 120.0 22.1  35d 130
2019 02 22 12  07 29 00.938   +61 38 12.06  .03787 1.0086 119.9 22.1  35d 129
2019 02 22 13  07 28 19.439   +61 39 02.14  .03792 1.0085 119.8 22.1  35d 129